Location: Chacón
(10.5789°N, 66.9317°W)
Time: 21:40:30
(UTC+00:00)

Hubble Space Telescope - Visible Passes

Search period start: 16 January 2026 00:00
Search period end: 26 January 2026 00:00
Orbit: 479 x 481 km, 28.5° (Epoch: 16 January)

Date Brightness Start Highest point End Pass type
(mag) Time Alt. Az. Time Alt. Az. Time Alt. Az.
16 Jan 2.3 00:14:44 10° SW 00:16:49 29° SW 00:16:49 29° SW visible
16 Jan 3.3 08:43:15 16° ENE 08:43:15 16° ENE 08:44:17 10° E visible
16 Jan 1.1 10:17:24 11° WNW 10:20:55 47° SSW 10:24:33 10° SE visible
16 Jan 0.7 23:45:03 10° SW 23:48:45 57° SSE 23:48:59 55° SE visible
17 Jan 1.0 09:49:32 27° W 09:51:13 47° SSW 09:54:51 10° SE visible
17 Jan 0.7 23:15:20 10° SW 23:19:03 58° SSE 23:21:08 24° E visible
18 Jan 1.1 09:21:41 45° SSW 09:21:41 45° SSW 09:25:08 10° SE visible
18 Jan 0.8 22:45:37 10° SW 22:49:20 59° SSE 22:53:03 10° ENE visible
19 Jan 3.1 00:26:11 10° WNW 00:27:24 16° WNW 00:27:24 16° WNW visible
19 Jan 2.7 08:53:49 22° SSE 08:53:49 22° SSE 08:55:24 10° SE visible
19 Jan 2.3 23:56:29 10° WNW 23:59:30 23° NNW 23:59:30 23° NNW visible
20 Jan 2.3 23:26:45 10° WNW 23:29:46 22° NNW 23:31:36 16° NNE visible
21 Jan 2.4 22:57:02 10° WNW 23:00:02 22° NNW 23:03:01 10° NNE visible
